{"data":{"norad_id":57110,"intl_designator":"2023-090K","name":"STARLINK-6134","alt_names":[],"object_type":"PAYLOAD","status":"ACTIVE","operator":null,"country":"US","launch_date":"2023-06-23","launch_site_code":"AFETR","launch_vehicle":null,"mission":null,"orbit_class":"UNKNOWN","rcs_meters":null,"size_class":null,"mass_kg":null,"dimensions":null,"purposes":["comms"],"wikipedia_slug":null,"has_3d_model":false,"image_url":null,"decayed_at":null,"tle_current":{"epoch":"2026-09-20T11:31:04.351008Z","epoch_age_seconds":122658,"freshness":"FRESH","line1":"1 57110U 23090K   26263.47991147  .00001211  00000+0  53509-4 0  9999","line2":"2 57110  43.0015 261.4379 0001182 271.7188  88.3528 15.27579154180129","mean_motion":15.27579154,"eccentricity":0.0001182,"inclination_deg":43.0015,"raan_deg":261.4379,"arg_perigee_deg":271.7188,"mean_anomaly_deg":88.3528,"bstar":5.3509e-5,"rev_number":18012,"period_min":94.266800920223,"perigee_km":482.24063677319,"apogee_km":483.86262176515,"semimajor_km":6861.1886292692,"source":"CELESTRAK","updated_at":"2026-09-21T09:00:33.559777Z"}}}